Regional Weather Roundup
Issued by NWS

Home | Current Version | Previous Version | Text Only | Print | Product List | Glossary On
Versions: 1 2 3 4 5 6 7 8 9 10 11 12 13 14 15 16 17 18 19 20 21 22 23 24 25 26 27 28 29 30 31 32 33 34 35 36 37 38 39 40 41 42 43 44 45 46 47 48 49 50
000
ASUS44 KOUN 291710
RWROK

WEATHER ROUNDUP FOR OKLAHOMA
NATIONAL WEATHER SERVICE NORMAN OK
1200 PM CDT FRI MAY 29 2015

NOTE: "FAIR" INDICATES FEW OR NO CLOUDS BELOW 12,000 FEET WITH NO
      SIGNIFICANT WEATHER AND/OR OBSTRUCTIONS TO VISIBILITY.

OKZ001>007-009>012-014-015-017-291800-
NORTHWEST OKLAHOMA AND THE PANHANDLE

CITY           SKY/WX    TMP DP  RH WIND       PRES   REMARKS
GAGE           PTSUNNY   73  58  59 NW5       30.00S
GUYMON         SUNNY     72  56  57 N15       30.04F
ENID/WOODRING  CLOUDY    75  64  69 CALM      29.96F
$$

OKZ016-021>023-033>039-044-045-291800-
SOUTHWEST OKLAHOMA

CITY           SKY/WX    TMP DP  RH WIND       PRES   REMARKS
LAWTON/REGL    CLOUDY    74  63  68 W7        29.97S
LAWTON/FT SILL CLOUDY    74  65  73 W6        29.96S
FREDERICK      CLOUDY    73  62  68 VRB3      29.95S
CLINTON        CLOUDY    72  60  66 S6        30.01S
HOBART         CLOUDY    72  62  71 VRB5      29.99S
ALTUS AFB      MOSUNNY   72  64  74 W8        29.98R
$$

OKZ018>020-024>031-291800-
CENTRAL OKLAHOMA

CITY           SKY/WX    TMP DP  RH WIND       PRES   REMARKS
OKLAHOMA CITY  CLOUDY    71  62  73 VRB3      29.98R
OKC/WILEY POST CLOUDY    73  62  68 S5        29.98R
OKC/TINKER AFB CLOUDY    70  63  78 NE1       29.99R
STILLWATER     CLOUDY    71  64  78 SE6       29.98S
GUTHRIE        CLOUDY    73  63  70 SE7       29.97S
$$

OKZ008-013-054>072-291800-
NORTHEAST OKLAHOMA

CITY           SKY/WX    TMP DP  RH WIND       PRES   REMARKS
TULSA          HVY RAIN  70  69  97 N7        29.98F VSB 1
TULSA/JONES    RAIN      69  67  93 CALM      29.99F FOG
PONCA CITY     CLOUDY    71  66  84 E7        29.97F
BARTLESVILLE   CLOUDY    70  68  93 SE7       30.00F
MUSKOGEE       CLOUDY    74  70  87 E8        29.97F
$$

OKZ032-040>043-046>053-073>077-291800-
SOUTH CENTRAL/SOUTHEAST OKLAHOMA

CITY           SKY/WX    TMP DP  RH WIND       PRES   REMARKS
ARDMORE/DWNTWN CLOUDY    70  66  88 NW5       29.96F
MCALESTER      CLOUDY    75  71  87 SE7       29.95F
$$



USA.gov is the U.S. government's official web portal to all federal, state and local government web resources and services.